NATIONAL KEY DEER NWR FL US current weather conditions

sailwx.info

Wind from 195 at 9 knots gusting 17

Air temperature 26.1° C
Dewpoint 22.4° C

Last reported at 2015-Aug-03 03:38 UTC.
Time now 2015-Aug-03 04:39 UTC

Location: N 24°43' W 081°23'.
View on Google Maps.

See reports from other nearby stations

  
Tides and Currents Weather Stations Pressure Air Temp Water Temp Dewpoint Dewpoint Depression Visibility Wind Speed Wind Dir Waves Ship Positions
date/time (UTC)wind fromknots sea level pressurealtimeterstation pressurevisibilityair tempwater tempwave heightnotes
2015-Aug-03 03:38 195 9 gusting 17 26.1
2015-Aug-03 02:38 26.1
2015-Aug-03 01:38 26.1
2015-Aug-03 00:38 26.7
2015-Aug-02 23:38 169 0 gusting 6 27.8
2015-Aug-02 22:38 244 1 gusting 28 26.7
2015-Aug-02 21:38 299 3 gusting 7 32.2
2015-Aug-02 20:38 267 2 gusting 7 32.8
2015-Aug-02 19:38 223 5 gusting 10 33.9
2015-Aug-02 18:38 217 6 gusting 12 33.9
2015-Aug-02 17:38 197 5 gusting 10 34.4
2015-Aug-02 16:38 212 5 gusting 9 33.9
2015-Aug-02 15:38 196 5 gusting 11 33.3
2015-Aug-02 14:38 188 6 gusting 9 32.8
2015-Aug-02 13:38 190 6 gusting 10 31.7
2015-Aug-02 12:38 187 4 gusting 7 30.0
2015-Aug-02 11:38 186 3 gusting 5 27.8
2015-Aug-02 10:38 170 3 gusting 7 27.8
2015-Aug-02 09:38 154 0 gusting 3 25.6
2015-Aug-02 08:38 164 2 gusting 4 26.7
2015-Aug-02 07:38 157 2 gusting 4 27.2
2015-Aug-02 06:38 165 1 gusting 4 27.2
2015-Aug-02 05:38 157 2 gusting 6 28.3
2015-Aug-02 04:38 155 2 gusting 5 28.3
2015-Aug-02 03:38 171 2 gusting 5 28.9
2015-Aug-02 02:38 164 2 gusting 6 28.9
2015-Aug-02 01:38 156 3 gusting 5 28.9
2015-Aug-02 00:38 142 1 gusting 3 28.9
2015-Aug-01 23:38 160 1 gusting 4 30.6
2015-Aug-01 22:38 190 2 gusting 6 31.1
2015-Aug-01 21:38 179 4 gusting 10 31.1
2015-Aug-01 20:38 182 5 gusting 11 32.2
2015-Aug-01 19:38 184 6 gusting 12 32.2
2015-Aug-01 18:38 187 7 gusting 13 33.3
2015-Aug-01 17:38 182 6 gusting 14 32.8
2015-Aug-01 16:38 163 6 gusting 14 32.8
2015-Aug-01 15:38 159 6 gusting 13 32.8
2015-Aug-01 14:38 165 7 gusting 13 31.1
2015-Aug-01 13:38 169 6 gusting 13 30.6
2015-Aug-01 12:38 155 3 gusting 6 30.0
2015-Aug-01 11:38 167 0 gusting 3 26.1
2015-Aug-01 10:38 172 0 gusting 4 26.1
2015-Aug-01 09:38 162 3 gusting 5 27.2
2015-Aug-01 08:38 155 2 gusting 4 27.2
2015-Aug-01 07:38 166 2 gusting 3 27.2
2015-Aug-01 06:38 172 2 gusting 4 27.8
2015-Aug-01 05:38 144 1 gusting 7 28.3
2015-Aug-01 04:38 130 3 gusting 7 28.9